Location: Newark
(30.1000°N, 109.4667°E)
Time: 01:02:48
(UTC+00:00)

A-11 Canister half - Pass Details

Date: 20 February 2020
Orbit: 1517 x 1683 km, 47.2° (Epoch: 27 March)

Event Time Altitude Azimuth Distance (km) Brightness Sun altitude
Rises 10:38:30 0° 271° (W) 4,894 13.7 -1.8°
Reaches altitude 10° 10:42:10 10° 281° (W) 3,888 12.5 -2.6°
Maximum altitude 10:50:52 33° 343° (NNW) 2,452 10.2 -4.4°
Drops below altitude 10° 10:59:21 10° 45° (NE) 3,775 10.6 -6.2°
Enters shadow 11:02:05 - 53° (NE) 4,515 10.9 -6.8°
